Regional Weather Roundup
Issued by NWS

Home | Current Version | Previous Version | Text Only | Print | Product List | Glossary Off
Versions: 1 2 3 4 5 6 7 8 9 10 11 12 13 14 15 16 17 18 19 20 21 22 23 24 25 26 27 28 29 30 31 32 33 34 35 36 37 38 39 40 41 42 43 44 45 46 47 48 49 50

000
ASUS43 KIND 260609
RWRIN

WEATHER ROUNDUP FOR INDIANA
NATIONAL WEATHER SERVICE INDIANAPOLIS IN
200 AM EDT THU APR 26 2018

NOTE: "FAIR" INDICATES FEW OR NO CLOUDS BELOW 12,000 FEET WITH NO
SIGNIFICANT WEATHER AND/OR OBSTRUCTIONS TO VISIBILITY.

* - STATION DOES NOT REPORT WEATHER SUCH AS PRECIPITATION OR FOG.

+ - STATION NOT QUALITY CONTROLLED BY THE NATIONAL WEATHER SERVICE.
    USE DATA WITH CAUTION...ESPECIALLY DEWPOINT AND RELATIVE
    HUMIDITY OBSERVATIONS.

INZ001>003-010>013-019-020-260700-
NORTHWEST INDIANA

CITY           SKY/WX    TMP DP  RH WIND       PRES   REMARKS
GARY /AIRPORT/   N/A     33  32  97 CALM      30.00F FOG
KNOX *+        FAIR      32  32 100 NW5       29.97F WCI  27
LA PORTE +     FAIR      34  30  86 N5        29.97F WCI  30
6HR MIN TEMP:  34; 6HR MAX TEMP:  44;

MICHIGAN CITY+ FAIR      34  34 100 CALM      29.99S
MONTICELLO +   FAIR      32  27  80 W5        29.97F WCI  28
6HR MIN TEMP:  33; 6HR MAX TEMP:  53;

RENSSELAER +   FAIR      32  28  86 CALM      29.98F
VALPARAISO     FAIR      38  31  76 N5        29.97F WCI  34
6HR MIN TEMP:  38; 6HR MAX TEMP:  47;


$$

LMZ046-743>745-260700-
SOUTHERN LAKE MICHIGAN

STATION/POSITION TIME  TEMP    WIND        PRES    WAVE
                       AIR SEA DIR/SP/G            HT
                 (UTC) (F)     (DEG/KT/KT) (MB)    (FT)
BURNS HARBOR     0602   40     320/  4/  7 1016.3
MICHIGAN CITY    0540   38     280/  7/  7   N/A

$$

INZ004-005-014>016-021>024-260700-
NORTH CENTRAL INDIANA

CITY           SKY/WX    TMP DP  RH WIND       PRES   REMARKS
GOSHEN         FAIR      36  30  79 NW5       29.95F WCI  32
6HR MIN TEMP:  35; 6HR MAX TEMP:  49;

LOGANSPORT +   FAIR      36  30  80 N5        29.97F WCI  32
PERU/GRISSOM   FAIR      36  30  79 W5        29.95F WCI  32
6HR MIN TEMP:  36; 6HR MAX TEMP:  52;

ROCHESTER +    FAIR      37  32  81 N3        29.96F
SOUTH BEND     FAIR      33  27  78 W3        29.97F
6HR MIN TEMP:  33; 6HR MAX TEMP:  47;

WARSAW +       FAIR      36  30  80 N3        29.95F

$$

INZ006>009-017-018-025>027-260700-
NORTHEAST INDIANA

CITY           SKY/WX    TMP DP  RH WIND       PRES   REMARKS
ANGOLA *+      FAIR      37  32  81 CALM      29.94S
AUBURN +       FAIR      37  32  81 NW3       29.95S
FORT WAYNE     FAIR      40  31  70 NW3       29.95S
6HR MIN TEMP:  40; 6HR MAX TEMP:  55;

HUNTINGTON +   FAIR      37  28  69 CALM      29.95S
6HR MIN TEMP:  37; 6HR MAX TEMP:  52;

KENDALLVILLE + FAIR      37  28  70 CALM      29.94F

$$

INZ028-029-035-036-043>045-051>053-260700-
WEST CENTRAL INDIANA

CITY           SKY/WX    TMP DP  RH WIND       PRES   REMARKS
CRAWFORDSVL +  FAIR      38  32  77 N5        29.97F WCI  35
6HR MIN TEMP:  38; 6HR MAX TEMP:  53;

GREENCASTLE +  FAIR      41  30  65 CALM      29.97F
LAFAYETTE      FAIR      36  30  79 CALM      29.98F
6HR MIN TEMP:  36; 6HR MAX TEMP:  52;

TERRE HAUTE    FAIR      46  33  60 N3        29.97F
6HR MIN TEMP:  44; 6HR MAX TEMP:  61;


$$

INZ030>032-037>040-046>048-054>057-064-065-260700-
CENTRAL INDIANA

CITY           SKY/WX    TMP DP  RH WIND       PRES   REMARKS
FRANKFORT +    FAIR      41  32  70 N8        29.98F
6HR MIN TEMP:  40; 6HR MAX TEMP:  55;

GREENWOOD *+   FAIR      43  30  60 CALM      29.96F
INDIANAPOLIS   MOCLDY    43  29  57 NW5       29.96F
6HR MIN TEMP:  43; 6HR MAX TEMP:  58;

-EAGLE CREEK   FAIR      44  30  57 NW5       29.95F
6HR MIN TEMP:  43; 6HR MAX TEMP:  58;

KOKOMO +       FAIR      37  29  72 W5        29.97S WCI  33
6HR MIN TEMP:  37; 6HR MAX TEMP:  53;

MARION +       FAIR      37  30  75 CALM      29.96S
MT COMFORT *+  FAIR      36  34  93 N3        29.96S
SHELBYVILLE    FAIR      43  31  62 N3        29.94F
6HR MIN TEMP:  43; 6HR MAX TEMP:  60;

ZIONSVILLE +   FAIR      37  31  77 NW3       29.96S
6HR MIN TEMP:  37; 6HR MAX TEMP:  54;


$$

INZ033-034-041-042-049-050-058-059-260700-
EAST CENTRAL INDIANA

CITY           SKY/WX    TMP DP  RH WIND       PRES   REMARKS
MUNCIE         FAIR      41  30  65 NW5       29.94F
6HR MIN TEMP:  40; 6HR MAX TEMP:  58;

RICHMOND +     FAIR      41  32  70 N6        29.93F

$$

INZ060-061-067>069-081>083-085>088-260700-
SOUTHWEST INDIANA

CITY           SKY/WX    TMP DP  RH WIND       PRES   REMARKS
EVANSVILLE     FAIR      57  46  66 NE13      29.92S
6HR MIN TEMP:  57; 6HR MAX TEMP:  65;

HUNTINGBURG +  FAIR      55  43  63 NE12      29.93F
6HR MIN TEMP:  54; 6HR MAX TEMP:  63;

WASHINGTON +   FAIR      51  33  49 NE5       29.95F
6HR MIN TEMP:  51; 6HR MAX TEMP:  62;


$$

INZ062-063-066-070>080-084-089>092-260700-
SOUTH CENTRAL AND SOUTHEAST INDIANA

CITY           SKY/WX    TMP DP  RH WIND       PRES   REMARKS
BATESVILLE +   CLOUDY    45  32  61 MISG      29.94F
BLOOMINGTON    FAIR      49  32  52 N3        29.95F
6HR MIN TEMP:  48; 6HR MAX TEMP:  61;

FRENCH LICK *+ FAIR      52  30  43 N8        29.94S
MADISON *+     FAIR      50  34  53 N3        29.95F
NORTH VERNON + FAIR      46  32  57 N6        29.96F
SEYMOUR +      FAIR      50  34  53 N10       29.95F

$$





USA.gov is the U.S. government's official web portal to all federal, state and local government web resources and services.